Location: Red Deer
(52.2681°N, 113.8112°W)
Time: 00:45:39
(UTC-07:00)

BlueWalker 3 - Pass Details

Date: 05 December 2022
Orbit: 499 x 517 km, 53.2° (Epoch: 29 January)

Event Time Altitude Azimuth Distance (km) Brightness Sun altitude
Rises 19:10:29 0° 287° (WNW) 2,629 6.7 -24.3°
Reaches altitude 10° 19:12:43 10° 283° (WNW) 1,736 5.6 -24.6°
Enters shadow 19:16:02 51° 241° (WSW) 644 2.7 -25.1°
